Location: Molino di Ancona
(43.6167°N, 13.3667°E)
Time: 08:58:57
(UTC+00:00)

Okean 3 - Pass Details

Date: 15 December 2019
Orbit: 577 x 600 km, 82.5° (Epoch: 19 January)

Event Time Altitude Azimuth Distance (km) Brightness Sun altitude
Exits shadow 05:06:44 20° 323° (NW) 1,371 4.9 -14.9°
Maximum altitude 05:09:03 36° 268° (W) 931 4.0 -14.5°
Drops below altitude 10° 05:12:55 10° 202° (SSW) 1,905 6.0 -13.8°
Sets 05:15:13 0° 194° (SSW) 2,804 7.0 -13.4°
